Location: Newark
(30.0333°N, 31.2167°E)
Time: 11:46:50
(UTC+00:00)

deb Explorer IX - Visible Passes

Search period start: 24 January 2020 00:00
Search period end: 03 February 2020 00:00
Orbit: 548 x 1101 km, 38.8° (Epoch: 23 January)

Date Brightness Start Highest point End Pass type
(mag) Time Alt. Az. Time Alt. Az. Time Alt. Az.
24 Jan ? 01:47:39 25° SE 01:47:39 25° SE 01:49:55 10° ESE visible
24 Jan ? 03:29:02 19° WSW 03:30:26 20° SW 03:34:28 10° S visible
24 Jan ? 18:03:08 10° SSW 18:06:25 29° SSW 18:06:25 29° SSW visible
25 Jan ? 01:26:53 14° SE 01:26:53 14° SE 01:27:41 10° SE visible
25 Jan ? 03:08:16 20° SW 03:08:16 20° SW 03:12:16 10° S visible
25 Jan ? 17:40:50 10° SSW 17:45:43 41° S 17:45:43 41° S visible
26 Jan ? 02:47:33 18° SSW 02:47:33 18° SSW 02:50:01 10° S visible
26 Jan ? 17:18:31 10° SW 17:24:31 45° SE 17:24:58 45° SE visible
26 Jan ? 19:05:08 10° WSW 19:06:21 16° W 19:06:21 16° W visible
27 Jan ? 02:26:50 13° S 02:26:50 13° S 02:27:44 10° S visible
27 Jan ? 16:56:14 10° SW 17:02:05 46° SE 17:04:11 35° E visible
27 Jan ? 18:42:49 10° WSW 18:45:33 27° W 18:45:33 27° W visible
28 Jan ? 16:33:58 10° SW 16:39:40 46° SE 16:43:20 24° E visible
28 Jan ? 18:20:31 10° WSW 18:24:42 42° W 18:24:42 42° W visible
29 Jan ? 16:11:41 10° SW 16:17:15 46° SE 16:22:26 15° ENE visible
29 Jan ? 17:58:13 10° WSW 18:03:48 59° NW 18:03:48 59° NW visible
30 Jan ? 15:49:26 10° SW 15:54:49 46° SE 16:01:05 10° ENE visible
30 Jan ? 17:35:56 10° W 17:42:05 62° NNW 17:42:50 58° N visible
30 Jan ? 19:23:59 10° WNW 19:24:12 11° WNW 19:24:12 11° WNW visible
31 Jan ? 17:13:40 10° W 17:19:38 60° NNW 17:21:49 41° NE visible
31 Jan ? 19:01:40 10° WNW 19:03:11 17° WNW 19:03:11 17° WNW visible
01 Feb ? 16:51:25 10° W 16:57:12 59° NNW 17:00:46 28° NE visible
01 Feb ? 18:39:21 10° WNW 18:42:07 25° NW 18:42:07 25° NW visible
02 Feb ? 16:29:10 10° W 16:34:47 58° NNW 16:39:39 18° NE visible
02 Feb ? 18:17:03 10° WNW 18:21:00 32° NW 18:21:00 32° NW visible
